Regional Weather Roundup
Issued by NWS

Home | Current Version | Previous Version | Graphics & Text | Print | Product List | Glossary On
Versions: 1 2 3 4 5 6 7 8 9 10 11 12 13 14 15 16 17 18 19 20 21 22 23 24 25 26 27 28 29 30 31 32 33 34 35 36 37 38 39 40 41 42 43 44 45 46 47 48 49 50
000
ASUS45 KABQ 260110
RWRNM
NEW MEXICO REGIONAL WEATHER ROUNDUP
NATIONAL WEATHER SERVICE ALBUQUERQUE NM
700 PM MDT SUN SEP 25 2016

NOTE: "FAIR" MEANS FEW OR NO CLOUDS BELOW 12,000 FEET AGL WITH NO
       SIGNIFICANT WEATHER OR OBSTRUCTIONS TO VISION.

      THIS PRODUCT IS RELEASED AS TWO VERSIONS.  ONE VERSION NEAR
      THE TOP OF THE HOUR CONTAINING PRELIMINARY DATA FROM ALBUQUERQUE
      AND OTHER STATIONS.  A FINAL VERSION WITH ADDITIONAL DATA IS
      ISSUED ABOUT 10 MINUTES AFTER THE HOUR.

NMZ501-503-504-510>518-260200-
NORTHWEST PLATEAU/NORTHCENTRAL MOUNTAINS

CITY           SKY/WX    TMP DP  RH WIND       PRES   REMARKS
FARMINGTON     FAIR      69  29  22 W7        30.30S
LOS ALAMOS     FAIR     N/A N/A N/A S12       30.42S
SANTA FE       FAIR      63  33  32 SE13      30.38R
TAOS           FAIR      61  32  33 SE16      30.41S
ANGEL FIRE     FAIR      50  33  52 SE5       30.52R

$$
NMZ402-403-502-505>509-260200-
WESTCENTRAL MOUNTAINS/SOUTHWEST MOUNTAINS

CITY           SKY/WX    TMP DP  RH WIND       PRES   REMARKS
GALLUP         FAIR      69  28  21 E13G22    30.33R
SILVER CITY    FAIR      72  33  23 NE14G21   30.21S

$$
NMZ407-409-411-412-260200-
SOUTHERN DESERTS

CITY           SKY/WX    TMP DP  RH WIND       PRES   REMARKS
DEMING         FAIR      74  43  32 E20G26    30.15R
LAS CRUCES     FAIR      71  42  35 SE17G24   30.19S
HOLLOMAN AFB   FAIR      73  42  33 E9        30.16R
ALAMOGORDO     FAIR      72  41  33 E14G21    30.18S
T OR C         FAIR      72  38  29 NE13G24   30.22R

$$
NMZ519>523-260200-
CENTRAL VALLEYS/CENTRAL HIGHLANDS

CITY           SKY/WX    TMP DP  RH WIND       PRES   REMARKS
ALBUQUERQUE    MOCLDY    69  35  28 E18       30.32R
DOUBLE EAGLE   MOCLDY    66  36  32 E12       30.35R
MORIARTY ARPT  FAIR      59  33  37 E8        30.41R
CLINES CORNERS FAIR      55  34  45 E12       30.44R
BELEN          NOT AVBL
SOCORRO        FAIR      68  37  32 E14       30.28S

$$
NMZ524>526-539-540-260200-
SOUTHCENTRAL MOUNTAINS

CITY           SKY/WX    TMP DP  RH WIND       PRES   REMARKS
RUIDOSO        CLOUDY    55  39  54 E9G16     30.42S

$$
NMZ527>531-260200-
NORTHEAST HIGHLANDS/NORTHEAST PLAINS

CITY           SKY/WX    TMP DP  RH WIND       PRES   REMARKS
LAS VEGAS      FAIR      53  33  46 E8        30.44R
RATON          FAIR      55  33  43 NE8       30.42R
CLAYTON        FAIR      54  38  54 NE8       30.38R

$$
NMZ532>537-260200-
EASTCENTRAL PLAINS

CITY           SKY/WX    TMP DP  RH WIND       PRES   REMARKS
TUCUMCARI      FAIR      69  35  28 NE12      30.31R
CANNON AFB     MOCLDY    64  41  42 E10       30.31R
CLOVIS AIRPORT FAIR      61  41  48 E9        30.31R

$$
NMZ028-029-538-260200-
SOUTHEAST PLAINS

CITY           SKY/WX    TMP DP  RH WIND       PRES   REMARKS
ROSWELL        CLOUDY    70  43  37 E8        30.27R
ARTESIA        CLOUDY    68  50  52 CALM      30.27R
CARLSBAD       CLOUDY    62  60  93 W6        30.24S
HOBBS          MOCLDY    63  48  59 NE14G21   30.27R


$$




USA.gov is the U.S. government's official web portal to all federal, state and local government web resources and services.